Warning: filectime(): stat failed for /home/allspect/public_html/aero/motest-cam/timelapse-current.mp4 in /home/allspect/public_html/aero/motest-cam/index.php on line 35
All Spectrum Aviation Van Nuys Pilot Shop and Aircraft Supplies - KVNY

All Spectrum Aviation - Van Nuys Airport - KVNY

HOME

Condor Squadron KVNY Webcam

Visit our Electronics Store

Condor Squadron Webcam - Van Nuys Airport - KVNY
Picture taken: Sun, 20 Dec 2020 14:16:37 -0800
YouTube Channel!    Latest Timelapse Movie    Full Size Image    Regular Size Image    

2021/01/21 05:51 KVNY 210551Z 36013KT 10SM CLR 17/02 A3000 RMK AO2 SLP151 T01720022 10228 20172 53012

HOME

Condor Squadron KVNY Webcam

Visit our Electronics Store